Regional Weather Roundup
Issued by NWS

Home | Current Version | Previous Version | Graphics & Text | Print | Product List | Glossary On
Versions: 1 2 3 4 5 6 7 8 9 10 11 12 13 14 15 16 17 18 19 20 21 22 23 24 25 26 27 28 29 30 31 32 33 34 35 36 37 38 39 40 41 42 43 44 45 46 47 48 49 50
164
ASUS43 KDMX 311208
RWRIA

WEATHER ROUNDUP FOR IOWA
NATIONAL WEATHER SERVICE DES MOINES IA
700 AM CDT WED AUG 31 2016

NOTE: "FAIR" INDICATES FEW OR NO CLOUDS BELOW 12,000 FEET WITH NO
SIGNIFICANT WEATHER AND/OR OBSTRUCTIONS TO VISIBILITY.

* - THESE STATIONS ARE NOT NWS STATIONS...THUS NOT UNDER NWS
QUALITY CONTROL.  THEY ALSO DO NOT REPORT WEATHER SUCH
AS PRECIPITATION OR FOG.

IAZ001>003-012>014-020>022-031>034-043>046-311300-
   NORTHWEST IOWA

CITY           SKY/WX    TMP DP  RH WIND       PRES   REMARKS
CARROLL *      CLEAR     57  57 100 CALM      30.19S
CHEROKEE *     FOG       57  57 100 CALM      30.22S VSB<1/4
DENISON *      FOG       59  59 100 NE3       30.18S VSB<1/4
LE MARS *      FOG       57  57 100 CALM      30.23R VSB<1/4
ORANGE CITY *  CLEAR     63  61  94 E5        30.23R
SHELDON *      CLEAR     52  52 100 CALM      30.21S FOG
SIOUX CITY     CLEAR     60  58  92 NE3       30.21R
6HR MIN TEMP:  60; 6HR MAX TEMP:  69;

SPENCER        FOG       51  50  96 NW5       30.22S VSB 1
6HR MIN TEMP:  50; 6HR MAX TEMP:  60;

STORM LAKE *   CLEAR     59  57  94 NE6       30.22R
$$

IAZ055>058-069>071-079>083-090>094-311300-
   SOUTHWEST IOWA

CITY           SKY/WX    TMP DP  RH WIND       PRES   REMARKS
ATLANTIC *     PTCLDY    64  63  94 NE5       30.18R
AUDUBON *      PTCLDY    61  57  88 CALM      30.20R
CLARINDA *       N/A     68  68 100 MISG        N/A
COUNCIL BLFS * CLOUDY    64  64 100 N6        30.18R
CRESTON *      MOCLDY    64  63  94 N8        30.18R
HARLAN  *      CLOUDY    63  63 100 N6        30.22R
LAMONI         CLOUDY    67  65  93 N9        30.15R
6HR MIN TEMP:  67; 6HR MAX TEMP:  72; 6HR PCP: TRACE;

RED OAK *      CLOUDY    66  64  94 NE5       30.16S
SHENANDOAH *   CLOUDY    68  66  94 NE7       30.16S
$$

IAZ047>049-059>061-072>074-084-311300-
   CENTRAL IOWA

CITY           SKY/WX    TMP DP  RH WIND       PRES   REMARKS
AMES           MOCLDY    60  60 100 MISG      30.17R
6HR MIN TEMP:  60; 6HR MAX TEMP:  66;

ANKENY *         N/A    N/A N/A N/A MISG        N/A
BOONE *          N/A     59  57  94 N6        30.17R
CHARITON *       N/A     64  63  94 MISG      30.14S
DES MOINES     CLOUDY    66  60  81 N6        30.15R
6HR MIN TEMP:  66; 6HR MAX TEMP:  73;

GRINNELL*      MOCLDY    61  58  91 N3        30.16R
KNOXVILLE *    CLOUDY    66  61  82 N8        30.13S
MARSHALLTOWN   CLOUDY    58  58 100 N5        30.16R
6HR MIN TEMP:  57; 6HR MAX TEMP:  63;

NEWTON *       CLOUDY    63  61  94 N6        30.15R
PERRY *          N/A     61  61  98 N5        30.18R
$$

IAZ004>006-015-016-023>025-035-036-311300-
   NORTH CENTRAL IOWA

CITY           SKY/WX    TMP DP  RH WIND       PRES   REMARKS
ALGONA *       CLEAR     55  54  94 N3        30.21R
ESTHERVILLE    CLEAR     51  51 100 NW6       30.22R
6HR MIN TEMP:  51; 6HR MAX TEMP:  58;

FORT DODGE *   CLOUDY    55  54  94 CALM      30.20S
MASON CITY     CLOUDY    53  51  93 NW3       30.21R
6HR MIN TEMP:  53; 6HR MAX TEMP:  59;

FOREST CITY *    N/A     54  54 100 CALM      30.20R
WEBSTER CITY * PTCLDY    55  55 100 CALM      30.17R
IOWA FALLS *     N/A     58  56  92 CALM      30.19R
$$

IAZ007>011-017>019-026>030-037>042-050>054-066-311300-
   NORTHEAST IOWA

CITY           SKY/WX    TMP DP  RH WIND       PRES   REMARKS
CEDAR RAPIDS   MOCLDY    62  62 100 N6        30.12R
6HR MIN TEMP:  62; 6HR MAX TEMP:  69;

CHARLES CITY * CLOUDY    55  55 100 N5        30.19R
CLINTON *      PTCLDY    64  63  96 N8        30.10R
DECORAH *      CLOUDY    57  57 100 NW3       30.17R
DUBUQUE        PTCLDY    61  58  90 N8        30.13R
6HR MIN TEMP:  60; 6HR MAX TEMP:  69;

MONTICELLO *   MOCLDY    61  59  94 CALM      30.12R
OELWEIN *      PTCLDY    57  57 100 N7        30.17R
WATERLOO       MOCLDY    58  55  90 NW5       30.15R
6HR MIN TEMP:  57; 6HR MAX TEMP:  63;

$$

IAZ064-065-067-068-078-311300-
   EAST CENTRAL IOWA

CITY           SKY/WX    TMP DP  RH WIND       PRES   REMARKS
DAVENPORT      CLOUDY    65  63  93 N5        30.10R
6HR MIN TEMP:  65; 6HR MAX TEMP:  71;

IOWA CITY      CLOUDY    67  62  84 N10       30.12R
6HR MIN TEMP:  67; 6HR MAX TEMP:  74;

MT. PLEASANT * CLOUDY    69  69 100 N6        30.11R
QUAD CITIES    MOCLDY    70  63  78 N3        30.09R
6HR MIN TEMP:  69; 6HR MAX TEMP:  75;

$$

IAZ062-063-075>077-085>089-095>099-311300-
   SOUTHEAST IOWA

CITY           SKY/WX    TMP DP  RH WIND       PRES   REMARKS
BURLINGTON     CLOUDY    69  68  96 N6        30.09R
6HR MIN TEMP:  69; 6HR MAX TEMP:  73;

FAIRFIELD *    CLOUDY    66  64  94 N6        30.11S
FORT MADISON * MOCLDY    70  68  94 CALM      30.10R
KEOKUK *       MOCLDY    72  70  94 N5        30.09R
OSKALOOSA *      N/A     64  63  97 N7        30.13S
CENTERVILLE *    N/A     66  64  94 CALM      30.14S
OTTUMWA        CLOUDY    65  63  93 N7        30.13R
6HR MIN TEMP:  65; 6HR MAX TEMP:  72;

WASHINGTON *   CLOUDY    66  64  94 N9        30.12S
$$

ABBREVIATIONS USED IN REMARKS
   TC - TEMPERATURES IN CELSIUS
  WCI - WIND CHILL INDEX
   HX - HEAT INDEX
  VSB - VISIBILITY
$$





USA.gov is the U.S. government's official web portal to all federal, state and local government web resources and services.